Flag for Germany Past Weather in Neumarkt in der Oberpfalz, Bavaria, Germany — Yesterday and Last 2 Weeks

Now
57 °F

Sunny.


Feels Like: 57 °F
Forecast: 58 / 83 °F
Wind: No wind

Location: Hohenfels

Current Time: Aug 24, 2016 at 8:53:20 AM

Latest Report: Aug 24, 2016 at 7:58 AM


Visibility: N/A

Pressure: 30.30 "Hg

Humidity: 94%

Dew Point: 55 °F

Location of Neumarkt in der OberpfalzLocation

Past Weather in Neumarkt in der Oberpfalz — Graph

°F

Neumarkt in der Oberpfalz Temperature Yesterday

Maximum temperature yesterday: 79 °F (at 3:58 PM)
Minimum temperature yesterday: 52 °F (at 3:58 AM)
Average temperature yesterday: 65 °F

High & Low Weather Summary for the Past Weeks

 TemperatureHumidityPressure
High81 °F (Aug 20, 2:58 PM)100% (Aug 10, 12:58 AM)30.42 "Hg (Aug 10, 12:58 AM)
Low39 °F (Aug 11, 5:58 AM)30% (Aug 18, 4:58 PM)29.80 "Hg (Aug 18, 2:58 PM)
Average61 °F78%30.13 "Hg
* Reported Aug 9 6:58 AM — Aug 24 6:58 AM, Neumarkt in der Oberpfalz, Weather by CustomWeather, © 2016

Note: Actual official high and low records may vary slightly from our data, if they occured in-between our weather recording intervals... More about our weather records

Advertising

Neumarkt in der Oberpfalz Weather History for the Previous 24 Hours

Scroll right to see more
 ConditionsComfort  
Time TempWeatherWind HumidityBarometerVisibility
6:58 AM
Wed, Aug 24
54 °FClear.No wind94%30.30 "HgN/A
5:58 AM54 °FCool.N/A100%30.29 "HgN/A
4:58 AM54 °FClear.No wind100%30.29 "HgN/A
3:58 AM55 °FClear.No wind100%30.29 "HgN/A
2:59 AM55 °FFog.No wind100%30.33 "Hg3 mi
2:58 AM55 °FFog.No wind100%30.30 "Hg2 mi
1:58 AM55 °FFog.No wind100%30.31 "Hg6 mi
12:58 AM59 °FClear.1 mph94%30.31 "HgN/A
11:58 PM
Tue, Aug 23
59 °FClear.No wind94%30.31 "HgN/A
10:58 PM61 °FClear.1 mph94%30.31 "HgN/A
9:58 PM63 °FClear.5 mph88%30.32 "HgN/A
8:58 PM66 °FSunny.5 mph83%30.32 "HgN/A
7:58 PM72 °FSunny.No wind69%30.30 "HgN/A
6:58 PM77 °FPassing clouds.2 mph54%30.30 "HgN/A
5:58 PM77 °FOvercast.5 mph51%30.30 "HgN/A
4:58 PM77 °FOvercast.2 mph51%30.31 "HgN/A
3:58 PM79 °FOvercast.3 mph48%30.32 "HgN/A
2:58 PM75 °FPartly sunny.3 mph57%30.33 "HgN/A
1:58 PM75 °FScattered clouds.5 mph57%30.34 "HgN/A
12:58 PM75 °FPartly sunny.2 mph57%30.35 "HgN/A
11:58 AM72 °FPartly sunny.3 mph61%30.37 "HgN/A
10:58 AM70 °FPassing clouds.3 mph64%30.38 "HgN/A
9:58 AM68 °FSunny.2 mph69%30.40 "HgN/A
9:00 AM64 °FPartly sunny.1 mph78%30.42 "HgN/A
8:58 AM64 °FScattered clouds.No wind73%30.40 "HgN/A
Weather by CustomWeather, © 2016

See weather overviewHow to use our weather pages